{"data":{"norad_id":66503,"intl_designator":"2025-263U","name":"STARLINK-35917","alt_names":[],"object_type":"PAYLOAD","status":"ACTIVE","operator":null,"country":"US","launch_date":"2025-11-15","launch_site_code":"AFETR","launch_vehicle":null,"mission":null,"orbit_class":"UNKNOWN","rcs_meters":null,"size_class":null,"mass_kg":null,"dimensions":null,"purposes":["comms"],"wikipedia_slug":null,"has_3d_model":false,"image_url":null,"decayed_at":null,"tle_current":{"epoch":"2026-09-19T22:17:46.685184Z","epoch_age_seconds":138655,"freshness":"FRESH","line1":"1 66503U 25263U   26262.92901256  .00017137  00000+0  63051-3 0  9996","line2":"2 66503  43.0009 333.8751 0001590 264.8222  95.2449 15.27595746 48601","mean_motion":15.27595746,"eccentricity":0.000159,"inclination_deg":43.0009,"raan_deg":333.8751,"arg_perigee_deg":264.8222,"mean_anomaly_deg":95.2449,"bstar":0.00063051,"rev_number":4860,"period_min":94.265777040204,"perigee_km":481.91102616345,"apogee_km":484.09286834867,"semimajor_km":6861.1389472561,"source":"CELESTRAK","updated_at":"2026-09-21T09:00:35.922881Z"}}}